TimeCST,TemperatureF,Dew PointF,Humidity,Sea Level PressureIn,VisibilityMPH,Wind Direction,Wind SpeedMPH,Gust SpeedMPH,PrecipitationIn,Events,Conditions,WindDirDegrees,DateUTC
12:15 AM,30.4,28.4,92,29.92,10.0,Calm,Calm,-,N/A,,Clear,0,2014-01-12 06:15:00
12:35 AM,30.0,28.2,93,29.92,10.0,SW,4.6,-,N/A,,Clear,230,2014-01-12 06:35:00
12:55 AM,30.2,28.2,92,29.92,10.0,WSW,3.5,-,N/A,,Clear,240,2014-01-12 06:55:00
1:15 AM,29.8,27.5,91,29.92,10.0,Calm,Calm,-,N/A,,Clear,0,2014-01-12 07:15:00
1:35 AM,30.4,28.4,92,29.91,10.0,Calm,Calm,-,N/A,,Clear,0,2014-01-12 07:35:00
1:55 AM,29.8,28.2,94,29.90,10.0,Calm,Calm,-,N/A,,Clear,0,2014-01-12 07:55:00
2:15 AM,29.7,28.0,94,29.90,7.0,South,3.5,-,N/A,,Clear,170,2014-01-12 08:15:00
2:35 AM,29.8,28.4,94,29.89,7.0,South,3.5,-,N/A,,Clear,170,2014-01-12 08:35:00
2:55 AM,29.7,28.0,94,29.89,7.0,South,4.6,-,N/A,,Clear,190,2014-01-12 08:55:00
3:15 AM,30.0,28.4,94,29.89,10.0,South,4.6,-,N/A,,Clear,180,2014-01-12 09:15:00
3:35 AM,30.6,28.4,92,29.89,10.0,South,3.5,-,N/A,,Clear,180,2014-01-12 09:35:00
3:55 AM,31.1,29.1,92,29.90,10.0,South,5.8,-,N/A,,Clear,190,2014-01-12 09:55:00
4:15 AM,31.6,29.3,91,29.90,10.0,South,6.9,-,N/A,,Clear,190,2014-01-12 10:15:00
4:35 AM,31.8,29.3,90,29.90,10.0,South,6.9,-,N/A,,Clear,190,2014-01-12 10:35:00
4:55 AM,31.1,28.8,91,29.89,10.0,South,5.8,-,N/A,,Clear,170,2014-01-12 10:55:00
5:15 AM,31.5,29.3,92,29.88,10.0,SSE,9.2,-,N/A,,Clear,160,2014-01-12 11:15:00
5:35 AM,32.0,29.3,90,29.89,10.0,South,5.8,-,N/A,,Clear,180,2014-01-12 11:35:00
5:55 AM,31.3,28.9,91,29.88,10.0,SSE,6.9,-,N/A,,Clear,160,2014-01-12 11:55:00
6:15 AM,31.1,28.9,92,29.88,10.0,South,6.9,-,N/A,,Clear,170,2014-01-12 12:15:00
6:35 AM,31.5,29.1,91,29.88,10.0,SSE,6.9,-,N/A,,Clear,160,2014-01-12 12:35:00
6:55 AM,31.8,29.3,90,29.87,10.0,SSE,8.1,-,N/A,,Clear,160,2014-01-12 12:55:00
7:15 AM,32.2,29.7,90,29.87,10.0,SSE,10.4,-,N/A,,Clear,160,2014-01-12 13:15:00
7:35 AM,32.0,29.3,90,29.87,10.0,SSE,6.9,-,N/A,,Clear,160,2014-01-12 13:35:00
7:55 AM,32.4,29.8,90,29.86,10.0,SSE,6.9,-,N/A,,Clear,150,2014-01-12 13:55:00
8:15 AM,34.3,30.6,86,29.86,10.0,South,6.9,-,N/A,,Clear,170,2014-01-12 14:15:00
8:35 AM,36.1,30.9,81,29.86,10.0,South,11.5,-,N/A,,Clear,170,2014-01-12 14:35:00
8:55 AM,37.2,31.1,79,29.86,10.0,SSE,12.7,-,N/A,,Clear,160,2014-01-12 14:55:00
9:15 AM,38.1,31.5,77,29.86,10.0,South,13.8,-,N/A,,Clear,170,2014-01-12 15:15:00
9:35 AM,39.7,31.8,73,29.85,10.0,SSE,13.8,-,N/A,,Clear,160,2014-01-12 15:35:00
9:55 AM,41.2,31.6,69,29.85,10.0,South,12.7,-,N/A,,Clear,170,2014-01-12 15:55:00
10:15 AM,42.6,31.8,66,29.84,10.0,South,16.1,19.6,N/A,,Clear,170,2014-01-12 16:15:00
10:35 AM,44.4,31.1,60,29.82,10.0,South,13.8,-,N/A,,Clear,170,2014-01-12 16:35:00
10:55 AM,45.1,30.7,57,29.80,10.0,South,15.0,-,N/A,,Clear,170,2014-01-12 16:55:00
11:15 AM,47.1,32.0,56,29.78,10.0,SSE,13.8,20.7,N/A,,Clear,160,2014-01-12 17:15:00
11:35 AM,48.0,32.0,54,29.76,10.0,South,16.1,21.9,N/A,,Clear,170,2014-01-12 17:35:00
11:55 AM,48.7,31.1,51,29.73,10.0,South,17.3,29.9,N/A,,Clear,170,2014-01-12 17:55:00
12:15 PM,49.3,32.7,53,29.72,10.0,South,17.3,21.9,N/A,,Clear,170,2014-01-12 18:15:00
12:35 PM,50.9,33.4,51,29.70,10.0,SSE,15.0,20.7,N/A,,Clear,160,2014-01-12 18:35:00
12:55 PM,51.4,33.3,50,29.68,10.0,SSE,18.4,27.6,N/A,,Clear,160,2014-01-12 18:55:00
1:15 PM,52.2,33.4,49,29.67,10.0,SSE,15.0,20.7,N/A,,Clear,160,2014-01-12 19:15:00
1:35 PM,52.9,33.6,48,29.64,10.0,South,24.2,27.6,N/A,,Clear,170,2014-01-12 19:35:00
1:55 PM,54.1,32.9,45,29.63,10.0,South,19.6,28.8,N/A,,Clear,170,2014-01-12 19:55:00
2:15 PM,54.9,33.4,44,29.62,10.0,South,20.7,26.5,N/A,,Clear,170,2014-01-12 20:15:00
2:35 PM,54.5,35.8,49,29.60,10.0,SSE,19.6,24.2,N/A,,Clear,150,2014-01-12 20:35:00
2:55 PM,54.7,35.6,49,29.59,10.0,SSE,18.4,25.3,N/A,,Clear,150,2014-01-12 20:55:00
3:15 PM,54.0,34.9,49,29.59,10.0,SSE,20.7,26.5,N/A,,Clear,160,2014-01-12 21:15:00
3:35 PM,54.5,34.7,47,29.59,10.0,SSE,16.1,20.7,N/A,,Clear,160,2014-01-12 21:35:00
3:55 PM,55.0,34.3,46,29.59,10.0,SSE,15.0,20.7,N/A,,Clear,160,2014-01-12 21:55:00
4:15 PM,54.3,34.3,47,29.59,10.0,SSE,12.7,19.6,N/A,,Clear,160,2014-01-12 22:15:00
4:35 PM,52.9,34.0,49,29.59,10.0,SSE,13.8,-,N/A,,Clear,160,2014-01-12 22:35:00
4:55 PM,51.6,33.4,50,29.60,10.0,SSE,12.7,-,N/A,,Clear,160,2014-01-12 22:55:00
5:15 PM,50.2,33.1,52,29.61,10.0,South,9.2,-,N/A,,Clear,170,2014-01-12 23:15:00
5:35 PM,49.1,32.4,53,29.62,10.0,SSE,8.1,-,N/A,,Clear,160,2014-01-12 23:35:00
5:55 PM,47.1,32.7,57,29.62,10.0,SSE,9.2,-,N/A,,Clear,150,2014-01-12 23:55:00
6:15 PM,46.9,32.9,58,29.62,10.0,SSE,10.4,-,N/A,,Clear,150,2014-01-13 00:15:00
6:35 PM,47.3,32.7,57,29.62,10.0,SSE,10.4,-,N/A,,Clear,150,2014-01-13 00:35:00
6:55 PM,47.7,32.4,55,29.63,10.0,SSE,11.5,-,N/A,,Clear,160,2014-01-13 00:55:00
7:15 PM,47.5,32.4,56,29.63,10.0,SSE,10.4,-,N/A,,Clear,160,2014-01-13 01:15:00
7:35 PM,46.6,32.4,58,29.63,10.0,SSE,10.4,-,N/A,,Clear,160,2014-01-13 01:35:00
7:55 PM,47.8,32.4,55,29.63,10.0,South,15.0,-,N/A,,Clear,170,2014-01-13 01:55:00
8:15 PM,49.5,32.5,52,29.63,10.0,South,16.1,-,N/A,,Clear,170,2014-01-13 02:15:00
8:35 PM,50.7,32.7,50,29.63,10.0,South,19.6,25.3,N/A,,Clear,170,2014-01-13 02:35:00
8:55 PM,50.2,33.1,52,29.63,10.0,South,19.6,27.6,N/A,,Clear,170,2014-01-13 02:55:00
9:15 PM,49.5,33.6,54,29.63,10.0,South,18.4,24.2,N/A,,Clear,170,2014-01-13 03:15:00
9:35 PM,49.3,34.0,56,29.63,10.0,South,19.6,23.0,N/A,,Clear,170,2014-01-13 03:35:00
9:55 PM,48.9,34.2,57,29.63,10.0,South,18.4,25.3,N/A,,Clear,170,2014-01-13 03:55:00
10:15 PM,49.1,34.3,57,29.62,10.0,South,18.4,25.3,N/A,,Clear,180,2014-01-13 04:15:00
10:35 PM,48.2,34.7,60,29.61,10.0,South,16.1,-,N/A,,Clear,170,2014-01-13 04:35:00
10:55 PM,48.4,34.7,59,29.61,10.0,South,12.7,-,N/A,,Clear,180,2014-01-13 04:55:00
11:15 PM,48.9,34.7,58,29.61,10.0,South,12.7,21.9,N/A,,Clear,180,2014-01-13 05:15:00
11:35 PM,48.6,34.7,59,29.61,10.0,South,13.8,-,N/A,,Clear,180,2014-01-13 05:35:00
11:55 PM,48.6,34.7,59,29.60,10.0,South,10.4,-,N/A,,Clear,180,2014-01-13 05:55:00